Location: *
(47.8307°S, 178.3954°E)
Time: 07:50:55
(UTC+00:00)

Lacrosse 5 - Pass Details

Date: 12 August 2024
Orbit: 714 x 724 km, 57.0° (Epoch: 09 March)

Event Time Altitude Azimuth Distance (km) Brightness Sun altitude
Exits shadow 16:18:15 37° 164° (SSE) 1,144 3.0 -29.7°
Maximum altitude 16:18:19 37° 163° (SSE) 1,144 3.0 -29.7°
Drops below altitude 10° 16:23:06 10° 95° (E) 2,239 5.4 -28.9°
Sets 16:25:40 0° 86° (E) 3,156 6.3 -28.5°
